Location: Kott?ru
(16.6209°N, 80.6208°E)
Time: 01:05:36
(UTC+00:00)

ADEOS - Pass Details

Date: 18 September 2020
Orbit: 792 x 794 km, 98.9° (Epoch: 26 October)

Event Time Altitude Azimuth Distance (km) Brightness Sun altitude
Rises 22:26:42 0° 21° (NNE) 3,284 7.2 -29.3°
Reaches altitude 10° 22:29:06 10° 26° (NNE) 2,354 6.4 -28.7°
Maximum altitude 22:34:08 51° 101° (ESE) 991 4.3 -27.5°
Drops below altitude 10° 22:39:09 10° 177° (S) 2,350 5.9 -26.3°
Enters shadow 22:39:29 - 178° (S) 2,479 6.0 -26.2°
